This demonstration page uses our WeatherBlox Daily Observations layout. Learn more.

Left ArrowRight Arrow

Hourly Observations for September 10, 2018

Temp ( °F °C ) Dew Point ( °F °C ) Humidity (%) Winds ( mph kmh ) Pressure ( in mb ) Visibility ( mi km ) Precip ( " mm )
12:15 am 00:15 Cloudy with Drizzle 55 13 55 13 100 100 ENE 8 13 30.12 1020 5 8 0.02 0.51
12:35 am 00:35 Cloudy with Heavy Rain 55 13 55 13 100 100 E 7 11 30.12 1020 7 11 0.04 1.02
12:55 am 00:55 Cloudy with Light Rain 55 13 55 13 100 100 ENE 7 11 30.12 1020 10 16 0.05 1.27
1:15 am 01:15 Cloudy with Light Rain 55 13 55 13 100 100 ENE 6 9 30.09 1019 7 11 0.02 0.51
1:35 am 01:35 Cloudy with Mist and Fog 55 13 55 13 100 100 ENE 6 9 30.09 1019 5 8 0.03 0.76
1:55 am 01:55 Cloudy with Light Rain 55 13 55 13 100 100 ENE 10 17 30.09 1019 3 5 0.05 1.27
2:15 am 02:15 Cloudy with Drizzle 55 13 55 13 100 100 ENE 9 15 30.09 1019 3 4 0.02 0.51
2:35 am 02:35 Cloudy with Mist and Fog 55 13 55 13 100 100 ENE 7 11 30.09 1019 3 5 0.03 0.76
2:55 am 02:55 Cloudy with Light Rain 55 13 55 13 100 100 E 6 9 30.09 1019 3 5 0.04 1.02
3:15 am 03:15 Cloudy with Light Rain 55 13 55 13 100 100 ENE 6 9 30.09 1019 3 4 0.01 0.25
3:35 am 03:35 Cloudy with Light Rain 55 13 55 13 100 100 ENE 7 11 30.09 1019 3 4 0.02 0.51
3:55 am 03:55 Cloudy with Drizzle 55 13 55 13 100 100 ENE 9 15 30.06 1018 3 4 0.03 0.76
4:15 am 04:15 Cloudy with Light Rain 55 13 55 13 100 100 E 7 11 30.06 1018 3 5 0.01 0.25
4:35 am 04:35 Cloudy with Mist and Fog 55 13 55 13 100 100 E 9 15 30.06 1018 4 6 0.02 0.51
4:55 am 04:55 Cloudy with Mist and Fog 55 13 55 13 100 100 E 7 11 30.06 1018 4 6 0.03 0.76
5:15 am 05:15 Cloudy with Mist and Fog 55 13 55 13 100 100 ESE 10 17 30.06 1018 5 8 0.01 0.25
5:35 am 05:35 Cloudy with Mist and Fog 55 13 55 13 100 100 E 7 11 30.06 1018 3 5 0.03 0.76
5:55 am 05:55 Cloudy with Mist and Fog 55 13 55 13 100 100 E 9 15 30.06 1018 3 5 0.04 1.02
6:15 am 06:15 Cloudy with Mist and Fog 55 13 55 13 100 100 E 6 9 30.06 1018 3 5 0.01 0.25
6:35 am 06:35 Cloudy with Mist and Fog 55 13 55 13 100 100 E 6 9 30.06 1018 3 5 0.02 0.51
6:55 am 06:55 Cloudy with Mist and Fog 55 13 55 13 100 100 E 7 11 30.06 1018 3 5 0.03 0.76
7:15 am 07:15 Cloudy with Mist and Fog 55 13 55 13 100 100 E 8 13 30.06 1018 3 5 0.01 0.25
7:35 am 07:35 Cloudy with Light Rain 55 13 55 13 100 100 E 6 9 30.06 1018 2 3 0.02 0.51
7:55 am 07:55 Cloudy with Drizzle 55 13 55 13 100 100 E 5 7 30.06 1018 3 4 0.03 0.76
8:15 am 08:15 Cloudy with Drizzle 55 13 55 13 100 100 ESE 3 6 30.09 1019 3 5 0.01 0.25
8:35 am 08:35 Cloudy with Light Rain 57 14 57 14 100 100 E 6 9 30.09 1019 3 4 0.02 0.51
8:55 am 08:55 Cloudy with Rain 57 14 57 14 100 100 Calm 30.09 1019 3 4 0.03 0.76
9:15 am 09:15 Cloudy with Light Rain 57 14 57 14 100 100 Calm 30.09 1019 3 5 0.01 0.25
9:35 am 09:35 Cloudy with Rain 57 14 57 14 100 100 ENE 6 9 30.09 1019 2 3 0.02 0.51
9:55 am 09:55 Cloudy with Rain 57 14 57 14 100 100 NE 3 6 30.09 1019 3 4 0.03 0.76
10:15 am 10:15 Cloudy with Drizzle 59 15 59 15 100 100 NE 3 6 30.09 1019 2 3 0.01 0.25
10:35 am 10:35 Cloudy with Rain 59 15 59 15 100 100 NE 5 7 30.09 1019 2 3 0.02 0.51
10:55 am 10:55 Cloudy with Light Rain 59 15 59 15 100 100 Calm 30.09 1019 4 6 0.03 0.76
11:15 am 11:15 Cloudy with Rain 59 15 59 15 100 100 NNE 3 6 30.09 1019 3 5 0.00 0.00
11:35 am 11:35 Cloudy with Drizzle 59 15 59 15 100 100 N 3 6 30.09 1019 3 4 0.01 0.25
11:55 am 11:55 Cloudy with Light Rain 59 15 59 15 100 100 NE 3 6 30.09 1019 2 3 0.02 0.51
12:15 pm 12:15 Cloudy with Drizzle 59 15 59 15 100 100 N 5 7 30.09 1019 2 2 0.01 0.25
12:35 pm 12:35 Cloudy with Mist and Fog 59 15 59 15 100 100 NE 3 6 30.09 1019 2 3 0.02 0.51
12:55 pm 12:55 Cloudy with Mist and Fog 59 15 59 15 100 100 NNE 3 6 30.06 1018 3 4 0.02 0.51
1:15 pm 13:15 Cloudy with Rain 59 15 59 15 100 100 NNE 5 7 30.06 1018 2 3 0.01 0.25
1:35 pm 13:35 Cloudy with Mist and Fog 59 15 59 15 100 100 Calm 30.06 1018 2 3 0.02 0.51
1:55 pm 13:55 Cloudy with Light Rain 59 15 59 15 100 100 NNE 5 7 30.06 1018 2 2 0.02 0.51
2:15 pm 14:15 Cloudy with Mist and Fog 59 15 59 15 100 100 N 6 9 30.06 1018 2 3 0.01 0.25
2:35 pm 14:35 Cloudy with Mist and Fog 59 15 59 15 100 100 N 6 9 30.06 1018 2 2 0.02 0.51
2:55 pm 14:55 Cloudy with Rain 59 15 59 15 100 100 NNE 5 7 30.06 1018 2 2 0.02 0.51
3:15 pm 15:15 Cloudy with Mist and Fog 59 15 59 15 100 100 NNE 5 7 30.03 1017 2 2 0.01 0.25
3:35 pm 15:35 Cloudy with Mist and Fog 59 15 59 15 100 100 N 5 7 30.03 1017 2 2 0.02 0.51
3:55 pm 15:55 Cloudy with Mist and Fog 59 15 59 15 100 100 NNE 5 7 30.03 1017 2 2 0.02 0.51
4:15 pm 16:15 Cloudy with Mist and Fog 59 15 59 15 100 100 NNE 3 6 30.03 1017 1 2 0.01 0.25
4:35 pm 16:35 Cloudy with Mist and Fog 61 16 61 16 100 100 N 6 9 30.03 1017 2 2 0.01 0.25
4:55 pm 16:55 Cloudy with Mist and Fog 61 16 61 16 100 100 NNE 3 6 30.03 1017 2 2 0.02 0.51
5:15 pm 17:15 Cloudy with Mist and Fog 61 16 61 16 100 100 N 5 7 30.03 1017 1 2 0.01 0.25
5:35 pm 17:35 Cloudy with Mist and Fog 61 16 61 16 100 100 NNE 6 9 30.03 1017 2 2 0.01 0.25
5:55 pm 17:55 Cloudy with Mist and Fog 61 16 61 16 100 100 NNE 5 7 30.00 1016 2 2 0.02 0.51
6:15 pm 18:15 Cloudy with Mist and Fog 61 16 61 16 100 100 NNE 5 7 30.03 1017 2 2 0.00 0.00
6:35 pm 18:35 Cloudy with Drizzle 61 16 61 16 100 100 Calm 30.03 1017 2 3 0.01 0.25
6:55 pm 18:55 Cloudy with Light Rain 59 15 59 15 100 100 N 3 6 30.03 1017 2 3 0.01 0.25
7:15 pm 19:15 Cloudy with Drizzle 61 16 61 16 100 100 N 3 6 30.03 1017 5 8 0.01 0.25
7:35 pm 19:35 Cloudy with Drizzle 61 16 61 16 100 100 NNE 3 6 30.03 1017 5 8 0.01 0.25
7:55 pm 19:55 Cloudy with Mist and Fog 61 16 61 16 100 100 Calm 30.03 1017 3 4 0.02 0.51
8:15 pm 20:15 Cloudy with Mist and Fog 61 16 61 16 100 100 Calm 30.03 1017 3 5 0.00 0.00
8:35 pm 20:35 Cloudy with Mist and Fog 61 16 61 16 100 100 Calm 30.03 1017 2 3 0.01 0.25
8:55 pm 20:55 Cloudy with Mist and Fog 61 16 61 16 100 100 Calm 30.06 1018 2 3 0.01 0.25
9:15 pm 21:15 Cloudy with Mist and Fog 61 16 61 16 100 100 Calm 30.06 1018 1 2 0.01 0.25
9:35 pm 21:35 Cloudy with Mist and Fog 61 16 61 16 100 100 Calm 30.06 1018 1 2 0.01 0.25
9:55 pm 21:55 Cloudy with Mist and Fog 61 16 61 16 100 100 Calm 30.06 1018 1 1 0.01 0.25
10:15 pm 22:15 Cloudy with Mist and Fog 61 16 61 16 100 100 Calm 30.06 1018 1 2 0.01 0.25
10:35 pm 22:35 Cloudy with Mist and Fog 61 16 61 16 100 100 Calm 30.06 1018 1 2 0.01 0.25
10:55 pm 22:55 Cloudy with Mist and Fog 61 16 61 16 100 100 Calm 30.06 1018 1 1 0.02 0.51
11:15 pm 23:15 Cloudy with Rain 61 16 61 16 100 100 Calm 30.06 1018 1 1 0.00 0.00
11:35 pm 23:35 Cloudy with Mist and Fog 61 16 61 16 100 100 Calm 30.06 1018 1 1 0.00 0.00
11:55 pm 23:55 Cloudy with Mist and Fog 61 16 61 16 100 100 Calm 30.06 1018 1 1 0.01 0.25

Powered by AerisWeather